Location: Chanteloup
(48.8560°N, 2.7390°E)
Time: 23:11:07
(UTC+00:00)

Cosmos 2322 Rocket - Pass Details

Date: 29 May 2022
Orbit: 833 x 850 km, 71.0° (Epoch: 03 July)

Event Time Altitude Azimuth Distance (km) Brightness Sun altitude
Exits shadow 21:30:02 - 195° (SSW) 2,821 4.5 -13.1°
Reaches altitude 10° 21:31:03 10° 194° (SSW) 2,437 4.2 -13.2°
Maximum altitude 21:36:34 66° 113° (ESE) 907 2.2 -13.7°
Drops below altitude 10° 21:42:08 10° 33° (NNE) 2,453 5.0 -14.2°
Sets 21:44:36 0° 31° (NNE) 3,392 5.8 -14.4°
